Tracking 22124 objects as of 23-Jan-2021
HD Live streaming from Space Station
objects crossing your sky now

SL-6 R/B(2)

Track SL-6 R/B(2) now!


NORAD ID: 11079
Int'l Code: 1978-095E
Perigee: 995.5 km
Apogee: 35,670.7 km
Inclination: 63.2 °
Period: 644.0 minutes
Semi major axis: 24704 km
RCS: 6.8174 m2 (large)
Launch date: October 13, 1978
Source: Commonwealth of Independent States (former USSR) (CIS)
Launch site: PLESETSK MISSILE AND SPACE COMPLEX (PKMTR)

Note: This is a ROCKET BODY
aabbcc
Your satellite tracking list
Your tracking list is empty




NASA's NSSDC Master Catalog

Two Line Element Set (TLE):
1 11079U 78095E   21021.52103524  .00000194  00000-0 -10589-2 0  9995
2 11079  63.2130 223.2892 7018089 279.8650  13.6350  2.23588254222309
Source of the keplerian elements: AFSPC